GFSGBSN_850_dewp_333.txt.gz
Dewpoint
-16 -18 -17 -16 -16 -18 -19 -19 -19 -19 -19 -19 -18 -18 -18 -22 -17 -10 -12 -15 -11 -7 -5 -5 -6 -8 -11 -7 -5 -5 -5 -9 -13 -16 -16 -11 -8 -8 -6 -7 -6 -2 0 1 1 2 1
-15 -16 -18 -17 -16 -17 -18 -19 -19 -19 -20 -21 -21 -20 -18 -18 -20 -22 -13 -13 -16 -10 -6 -5 -6 -7 -8 -2 -7 -4 -5 -6 -10 -9 -9 -8 -9 -9 -7 -1 -2 0 0 1 1 1 1
-15 -16 -17 -17 -16 -17 -17 -17 -18 -18 -19 -19 -21 -22 -22 -20 -18 -21 -25 -14 -15 -17 -8 -6 -6 -6 -7 -12 -9 -10 -6 -5 -7 -9 -10 -9 -3 -3 -4 -2 -2 -2 0 1 1 1 1
-15 -16 -16 -17 -17 -15 -16 -16 -16 -17 -18 -19 -19 -22 -23 -24 -21 -19 -21 -24 -14 -19 -11 -7 -6 -5 -8 -13 -12 -9 -10 -6 -6 -10 -9 -4 -4 -3 -2 -2 -2 -1 -1 3 1 2 1
-15 -15 -15 -18 -17 -17 -15 -14 -15 -16 -17 -18 -19 -21 -22 -23 -24 -23 -20 -26 -15 -19 -13 -7 -6 -5 -4 -10 -8 -11 -11 -7 -7 -9 -5 -3 -2 -3 -1 -0 -0 -0 1 1 2 1 1
-14 -14 -12 -15 -16 -16 -16 -13 -13 -15 -16 -16 -18 -20 -23 -23 -24 -23 -20 -20 -16 -20 -12 -6 -5 -2 -5 -7 -8 -12 -11 -7 -9 -8 -5 -4 -3 -1 -1 0 0 0 1 -0 2 2 1
-12 -15 -12 -8 -8 -14 -15 -14 -12 -13 -15 -16 -17 -18 -22 -23 -24 -17 2 3 3 3 -2 -2 -4 -8 -9 -8 -9 -11 -9 -7 -9 -8 -3 -4 -1 1 -1 -1 -3 -4 -4 -3 -1 1 2
-15 -13 -13 -8 -6 -8 -12 -14 -12 -12 -14 -15 -16 -18 -20 -22 -23 -2 4 4 3 4 4 1 -1 -2 -3 -5 -9 -9 -10 -9 -7 -6 -6 -4 -1 -3 -3 -3 -3 -3 -3 -2 -1 2 1
-13 -12 -11 -11 -6 -6 -9 -12 -12 -12 -13 -14 -16 -17 -18 -21 -16 2 3 3 4 4 6 0 -8 -0 -1 -5 -8 -9 -10 -11 -6 -5 -6 -3 -4 -5 -4 -4 -3 -3 -1 -2 -2 1 -0
-9 -11 -9 -11 -8 -7 -7 -10 -12 -13 -13 -13 -15 -17 -17 -20 -3 1 4 4 3 1 9 1 -2 -5 -5 -5 -8 -10 -11 -11 -9 -6 -6 -6 -7 -6 -5 -4 -4 -2 -4 -3 -1 -1 1
-3 -13 -13 -9 -9 -7 -6 -7 -8 -12 -14 -14 -15 -17 -17 -19 4 6 4 4 2 6 12 -4 -5 -6 -7 -7 -9 -10 -12 -11 -8 -7 -8 -5 -5 -4 -3 -4 -4 -1 -2 -1 -1 0 1
-5 -10 -15 -13 -9 -7 -6 -7 -7 -9 -12 -14 -14 -16 -15 -11 -10 4 1 -0 6 9 9 -5 -5 -5 -6 -8 -8 -9 -12 -11 -11 -9 -9 -7 -8 -7 -6 -4 -4 -3 -2 -1 -1 -0 3
-3 -8 -12 -12 -7 -6 -6 -7 -7 -7 -9 -11 -14 -16 -15 -4 5 5 -1 7 8 8 -6 -6 -5 -6 -5 -4 -5 -8 -9 -8 -8 -5 -4 -7 -6 -8 -7 -5 -6 -5 -1 3 3 3 4
-1 -4 -9 -14 -8 -6 -6 -7 -6 -6 -8 -9 -12 -16 -15 -9 5 3 2 9 10 -1 -3 -8 -8 -7 -5 -6 -5 -7 -8 -6 -7 -8 -6 -4 -2 -6 -7 -6 -4 -3 -0 4 4 2 1
1 -3 -8 -13 -9 -6 -7 -7 -5 -5 -6 -8 -11 -12 -16 -15 -11 -7 8 8 4 -2 -5 -4 -4 -5 -5 -6 -6 -7 -7 -7 -7 -6 -3 -3 -4 -7 -7 -7 -6 -4 -1 -3 0 -1 1
-0 1 -7 -11 -9 -7 -6 -7 -4 -4 -5 -8 -5 1 2 -6 -10 -4 8 6 1 -5 -5 -4 -2 -4 -1 -5 -5 -6 -4 -3 -3 -6 -6 -4 -2 -5 -8 -8 -8 -7 -6 -2 0 2 3
-3 1 -1 -9 -9 -7 -7 -7 -3 -3 -5 -5 4 5 5 4 -7 4 6 2 -1 -5 -5 -3 -1 -1 -0 -1 -2 -2 -1 -2 -2 -3 -3 -0 -3 -2 -7 -6 -5 -5 -5 -4 -2 -1 1
-4 1 1 -7 -10 -7 -7 -6 -2 -2 -5 0 7 6 7 4 1 1 1 -2 -5 -5 -5 -5 -5 -2 -0 1 1 1 1 0 -4 -2 1 -0 0 1 -2 -4 -8 -8 -6 -4 0 -0 1
-3 1 1 -5 -9 -6 -6 -4 -1 -1 -3 5 7 7 5 3 2 -1 -2 -2 -5 -3 -5 -7 -6 -4 -4 -2 -0 1 0 -3 -4 -2 -2 -4 1 3 1 -1 -3 -2 -4 -4 -3 -0 -0
-4 -1 -1 -6 -8 -5 -6 -2 -0 -1 1 6 7 6 5 6 6 5 3 -2 -2 -3 -2 -4 -5 -4 -3 -4 -6 -2 -1 -2 -4 -3 -4 -1 -1 0 3 1 -2 -1 -2 -4 -4 -1 -1
-4 -1 0 -2 -8 -6 -6 -0 -0 -2 2 5 7 5 1 2 -1 1 3 2 -2 -0 -4 -4 -3 -2 -2 -4 -3 -2 -3 -0 -2 -3 -1 1 3 2 2 -0 -2 -2 -3 -4 -3 -3 -1
-4 -3 -0 -2 -5 -3 -1 3 -0 -3 1 5 7 6 1 2 -6 -1 3 2 -0 -1 -2 -3 -3 -3 -4 -3 -1 1 2 3 2 -0 1 0 3 3 4 1 -1 -0 -2 -2 -2 -2 -1
-5 -5 -2 -3 -4 -4 -2 2 1 -2 2 6 5 4 4 3 1 2 3 1 -1 -2 -3 -4 -3 -4 -4 2 0 -1 -1 -2 -1 -1 1 1 2 3 3 2 1 2 -1 -3 -2 -2 -2
-4 -5 -4 -3 -4 -2 4 2 1 -2 4 7 6 5 4 5 2 2 1 0 -1 -3 -2 -3 -3 -1 1 -0 -1 -2 -3 -3 -3 -2 -2 1 2 1 4 3 1 1 -5 -4 -2 -2 -1
-5 -5 -6 -3 -3 -1 4 3 2 -1 4 6 5 7 8 6 1 1 1 -0 -1 -2 0 2 2 2 1 -0 0 1 4 3 3 0 -2 0 2 3 4 5 4 1 -1 -3 -2 1 -2
-5 -7 -5 -4 -2 1 4 3 2 0 3 5 7 6 7 7 6 5 1 1 2 1 -0 2 1 0 -0 3 3 3 3 -0 -1 0 -3 -1 1 4 4 4 5 5 -0 -2 -3 4 2
-5 -8 -5 -4 -1 2 4 3 2 1 3 6 7 5 6 6 4 4 5 4 2 0 3 0 1 1 2 2 3 4 4 0 -1 -2 1 2 2 4 6 4 5 3 -0 -2 4 4 2
-5 -8 -5 -2 0 4 4 4 3 1 3 5 6 4 6 5 5 5 5 5 5 6 6 2 2 2 2 0 2 2 2 2 1 -1 -1 1 4 4 5 5 6 3 0 3 2 1 0
-7 -5 -4 -0 2 3 4 4 3 2 3 4 5 3 6 6 5 4 3 4 4 5 4 5 6 5 6 6 6 5 3 4 4 3 0 6 6 6 3 5 4 4 2 2 3 3 3

GFSGBSN_850_dewp_336.txt.gz
Dewpoint
-15 -17 -18 -18 -18 -17 -18 -19 -20 -20 -20 -21 -21 -22 -21 -21 -24 -24 -18 -13 -16 -15 -9 -6 -6 -6 -8 -10 -12 -5 -6 -9 -9 -13 -15 -14 -10 -8 -6 -7 -4 -1 1 3 5 3 3
-14 -15 -17 -18 -18 -18 -18 -19 -20 -20 -20 -21 -22 -23 -23 -22 -21 -23 -25 -22 -14 -17 -14 -8 -6 -6 -6 -4 -13 -8 -6 -6 -6 -7 -8 -9 -8 -4 -7 -7 -1 0 1 1 2 2 2
-14 -15 -16 -17 -18 -19 -19 -18 -18 -19 -20 -21 -22 -23 -24 -25 -24 -23 -23 -26 -23 -14 -18 -11 -7 -6 -6 -11 -12 -8 -9 -6 -4 -7 -9 -10 -6 -3 -3 -1 -2 -0 2 1 1 1 1
-13 -15 -15 -15 -18 -19 -18 -17 -18 -18 -19 -20 -21 -22 -23 -24 -25 -26 -25 -24 -27 -16 -17 -15 -8 -6 -6 -13 -12 -14 -10 -9 -5 -6 -9 -6 -4 -3 -2 -2 -2 -0 0 3 1 1 1
-11 -15 -14 -16 -18 -19 -19 -17 -16 -17 -18 -19 -21 -22 -23 -23 -25 -26 -26 -22 -26 -17 -16 -16 -9 -4 -6 -10 -12 -13 -10 -10 -8 -7 -9 -4 -3 -2 -1 -1 -1 -0 -0 2 1 1 1
-9 -11 -14 -15 -15 -18 -19 -19 -16 -15 -17 -18 -20 -21 -23 -23 -24 -26 -2 -3 -18 -16 -18 -13 -6 -2 -6 -9 -9 -11 -11 -10 -10 -9 -6 -5 -4 -1 -1 -0 2 -0 1 0 -0 2 1
-6 -10 -14 -12 -11 -16 -18 -18 -16 -15 -16 -18 -19 -20 -22 -22 -23 -12 2 3 1 4 -1 -4 -2 -7 -6 -6 -7 -9 -11 -12 -12 -8 -4 -4 -2 0 -1 -1 -1 -2 -2 -2 -4 -1 2
-3 -9 -13 -13 -13 -13 -16 -17 -17 -15 -14 -16 -18 -20 -22 -22 -23 1 4 4 5 5 5 1 -3 -4 -5 -7 -2 -7 -9 -9 -8 -7 -7 -4 -1 -2 -2 -1 -1 -1 -1 -2 -3 2 2
-6 -11 -13 -11 -11 -14 -12 -15 -17 -15 -14 -15 -17 -19 -21 -21 -8 2 4 6 4 2 5 -2 -9 -2 -3 -3 -1 -4 -10 -9 -8 -5 -6 -5 -5 -5 -3 -3 -2 -3 -2 -2 -2 2 1
-2 -8 -16 -12 -12 -10 -11 -14 -15 -16 -15 -15 -15 -18 -20 -20 -4 1 4 4 4 3 6 2 -0 -10 -5 -4 -4 -8 -9 -9 -8 -6 -6 -5 -7 -6 -5 -5 -4 -3 -3 -3 -0 2 4
-1 -4 -10 -13 -12 -11 -11 -12 -13 -14 -15 -17 -16 -17 -19 -19 4 5 5 4 2 5 8 -1 -3 -7 -6 -4 -6 -9 -10 -10 -8 -8 -7 -6 -6 -6 -3 -4 -4 -2 -2 -2 -1 -0 0
-0 -3 -9 -17 -15 -13 -9 -10 -11 -13 -14 -16 -16 -16 -17 -18 -4 4 0 -2 4 5 5 -3 -6 -6 -6 -5 -5 -8 -10 -9 -11 -9 -9 -8 -9 -7 -6 -4 -4 -3 -2 -2 -1 -0 2
-1 -2 -7 -14 -17 -12 -9 -9 -10 -11 -12 -14 -15 -16 -17 -14 -7 -2 -6 4 3 7 -1 -6 -5 -4 -5 -4 -6 -7 -8 -9 -9 -6 -5 -6 -7 -8 -7 -6 -6 -4 -1 2 1 2 3
-0 -1 -2 -9 -16 -10 -7 -8 -8 -9 -10 -11 -13 -16 -16 -15 0 3 -3 7 7 2 -2 -7 -6 -8 -4 -5 -5 -6 -8 -7 -8 -8 -6 -6 -3 -6 -8 -5 -5 -5 -2 3 3 3 1
-1 -0 -5 -9 -13 -11 -7 -7 -8 -7 -9 -10 -11 -14 -16 -16 -2 -6 6 8 5 -1 -5 -3 -4 -4 -5 -6 -5 -5 -5 -1 -6 -6 -4 -3 -4 -7 -8 -7 -7 -5 -1 -2 1 0 1
-3 -1 -3 -9 -12 -11 -7 -7 -8 -5 -8 -8 -10 -8 -8 -12 -13 -9 7 7 3 -4 -4 -3 -1 -1 0 -3 -4 -4 -1 -2 -1 -3 -4 -4 -3 -5 -8 -7 -8 -7 -6 -3 -1 1 2
-3 -2 -3 -8 -11 -11 -7 -7 -7 -4 -6 -8 2 4 3 3 -5 4 3 4 0 -4 -5 -3 -4 -1 0 0 -0 -0 1 -1 -3 -2 -2 -2 -4 -4 -6 -6 -6 -5 -5 -4 -3 2 1
-3 -4 -2 -6 -6 -11 -7 -7 -5 -2 -5 -5 7 6 6 5 -6 2 1 -1 -4 -4 -6 -6 -6 -2 -2 -1 2 1 0 -2 -3 -3 -3 -3 0 -1 -3 -5 -6 -6 -4 -3 0 -1 1
-3 -5 -3 -4 -4 -10 -7 -7 -2 -1 -4 1 7 8 8 5 -6 -2 -2 -4 -4 -4 -3 -4 -5 -4 -4 -4 1 0 -0 -3 -3 -3 -4 -6 -0 0 -2 -1 -2 -2 -3 -4 -2 -0 -1
-2 -4 -5 -2 -10 -9 -6 -6 -0 -1 -4 4 7 5 6 5 6 1 2 -2 -4 -3 -2 -4 -4 -3 -3 -3 -5 -3 -0 -2 -3 -3 -3 -0 0 1 1 1 -1 -1 -2 -3 -3 0 -1
-2 -4 -7 -9 -15 -8 -5 -5 1 -0 -3 5 7 6 2 2 1 2 2 3 -3 -1 -3 -4 -3 -3 -3 -3 -2 -2 1 -2 -0 -1 -0 1 3 2 2 1 -1 -1 -2 -2 -1 -2 -0
-2 -5 -6 -3 -10 -11 -4 -5 1 0 -2 5 7 6 -0 1 -6 0 1 2 -0 -1 -4 -4 -4 -3 1 2 1 1 1 1 0 -1 -1 0 2 2 2 0 -1 -1 -2 -2 -1 -1 1
-2 -4 -7 -1 -1 -6 -3 -2 4 1 0 4 6 6 5 2 -3 -1 2 2 -1 -1 -2 -4 -4 -4 3 1 -0 -1 -2 -2 -2 -1 -0 1 1 2 2 1 -2 2 -0 -1 -1 -0 -1
-2 -3 -7 -4 -1 -5 -3 1 4 1 -1 6 6 6 5 4 0 0 1 0 -1 -3 -1 2 -1 2 1 -0 -1 -2 -3 -2 -2 -3 -2 -0 1 2 2 1 0 -1 -3 -1 1 0 -0
-2 -3 -7 -8 -3 -4 -3 4 4 1 -0 6 7 7 8 5 3 1 1 1 -1 1 3 2 2 1 -0 -1 1 2 3 2 2 0 -2 -0 3 3 3 3 1 4 2 -1 0 2 -1
-2 -3 -6 -9 -4 -3 -1 4 4 1 1 6 7 6 8 5 5 5 2 -0 1 0 2 2 -0 -0 -0 2 1 2 3 2 -0 1 -0 0 2 3 3 3 4 5 2 0 -1 4 2
-2 -4 -7 -8 -5 -3 1 4 4 1 2 5 7 5 6 5 5 5 5 3 1 0 2 2 1 -1 0 2 4 3 2 1 -1 1 1 2 3 4 4 3 5 4 1 -1 1 1 1
-2 -4 -8 -8 -5 -2 2 4 3 2 2 4 6 5 6 5 5 5 4 5 4 4 3 2 2 2 2 -0 1 1 2 2 1 -1 -0 2 3 3 4 5 4 3 2 3 1 2 1
-3 -5 -8 -9 -4 0 2 4 4 2 2 6 4 6 5 5 5 4 4 4 5 4 4 5 4 5 6 4 5 4 3 4 3 1 3 5 4 5 3 4 4 3 2 2 3 2 2

GFSGBSN_850_dewp_339.txt.gz
Dewpoint
-14 -15 -18 -20 -19 -18 -18 -19 -20 -21 -21 -22 -23 -24 -24 -23 -23 -24 -26 -23 -16 -15 -17 -14 -8 -7 -7 -7 -13 -11 -6 -9 -11 -10 -12 -14 -11 -7 -7 -7 -6 -3 1 3 6 5 4
-12 -14 -16 -19 -21 -19 -19 -19 -20 -21 -22 -22 -23 -24 -24 -25 -25 -24 -24 -26 -25 -19 -15 -16 -11 -8 -7 -4 -14 -10 -9 -6 -6 -6 -6 -8 -9 -8 -5 -7 -3 -0 1 3 4 3 3
-9 -12 -15 -17 -18 -20 -20 -19 -19 -20 -21 -21 -22 -23 -23 -24 -25 -26 -26 -25 -27 -27 -19 -16 -15 -10 -8 -9 -14 -10 -7 -5 -6 -5 -6 -9 -4 -4 -3 -2 -2 1 2 1 1 2 2
-6 -12 -11 -15 -18 -20 -20 -19 -19 -20 -20 -21 -22 -23 -23 -24 -25 -26 -27 -28 -26 -27 -24 -16 -16 -11 -7 -9 -11 -13 -11 -8 -9 -6 -6 -7 -2 -3 -3 -2 -2 -0 1 4 1 1 1
-3 -10 -13 -12 -16 -20 -20 -20 -19 -19 -19 -20 -21 -22 -24 -23 -24 -26 -24 -10 -22 -28 -26 -16 -16 -8 -6 -8 -9 -14 -13 -9 -9 -7 -8 -6 -4 -3 -1 -1 -0 -1 0 1 1 1 1
-1 -7 -10 -9 -15 -17 -19 -20 -19 -18 -18 -20 -21 -22 -23 -24 -25 -24 -1 -2 -4 -17 -16 -16 -13 -4 -7 -8 -5 -6 -10 -10 -10 -10 -8 -5 -5 -2 -1 -1 2 1 1 0 -0 -1 2
2 -4 -8 -8 -12 -13 -16 -18 -18 -18 -17 -18 -20 -21 -23 -23 -23 -2 -3 2 1 4 2 -7 -4 -6 -7 -7 -6 -8 -9 -11 -12 -12 -5 -4 -3 -2 -1 -1 -1 -2 -2 -1 -3 -4 2
2 -3 -9 -5 -13 -12 -14 -16 -18 -18 -16 -17 -19 -21 -22 -23 -22 3 3 5 7 7 6 -3 -3 -4 -6 -5 -3 -7 -9 -10 -8 -7 -7 -5 -2 -3 -3 -2 -1 -1 0 0 -2 -3 2
3 2 -6 -9 -12 -14 -14 -15 -16 -18 -17 -16 -17 -20 -22 -21 -10 4 4 4 5 5 5 -0 -7 -3 -2 -3 -2 -5 -6 -9 -8 -6 -6 -6 -6 -6 -4 -3 -2 -2 -1 -1 -1 1 2
3 2 -3 -8 -12 -12 -13 -13 -15 -16 -17 -16 -16 -20 -22 -20 -6 2 4 4 4 3 3 -2 1 -7 -6 -3 -3 -5 -6 -8 -8 -8 -7 -5 -6 -6 -6 -4 -4 -2 -4 -2 -0 3 4
3 2 -1 -6 -14 -14 -14 -12 -14 -14 -15 -16 -16 -19 -20 -20 1 5 3 2 1 6 3 -1 -1 -9 -6 -5 -6 -9 -6 -8 -9 -8 -7 -5 -6 -6 -4 -4 -5 -3 -2 -2 -1 0 0
3 3 -0 -3 -12 -15 -14 -12 -13 -14 -14 -14 -17 -18 -19 -20 -2 3 3 -5 4 1 1 -2 -5 -4 -4 -5 -5 -7 -9 -9 -10 -9 -9 -8 -9 -8 -7 -5 -4 -3 -3 -2 -1 -1 0
0 2 1 -3 -10 -15 -14 -13 -12 -11 -13 -15 -16 -17 -18 -18 -9 -1 -7 2 -1 4 -2 -6 -5 -5 -5 -5 -5 -6 -7 -9 -8 -7 -6 -7 -8 -9 -7 -5 -6 -3 -4 -0 -2 -1 -0
-0 -1 2 -4 -7 -13 -14 -13 -10 -10 -12 -13 -14 -16 -17 -19 -4 -3 -3 6 5 -4 -1 -5 -5 -6 -4 -5 -5 -6 -6 -3 -7 -8 -6 -7 -5 -7 -7 -6 -5 -5 -4 0 1 2 0
-1 -1 1 0 -4 -12 -13 -9 -8 -9 -9 -11 -12 -14 -16 -17 -8 -4 6 5 4 3 -5 -3 -4 -4 -4 -6 -6 -4 -2 -1 -4 -4 -6 -3 -4 -6 -8 -8 -7 -4 -2 -3 0 0 1
-1 -1 -0 1 -9 -12 -13 -8 -7 -8 -9 -9 -11 -13 -12 -15 -13 -9 5 3 4 1 -4 -3 -2 -1 0 -1 -3 -1 -1 -3 -2 -3 -3 -4 -3 -6 -7 -8 -7 -7 -6 -3 -1 -2 0
-1 -2 -2 0 -4 -10 -12 -8 -8 -7 -6 -7 -6 -3 2 1 -8 3 -1 4 2 -4 -4 -5 -4 -1 -0 -0 -1 0 1 -3 -3 -3 -4 -3 -5 -5 -5 -4 -5 -4 -3 -3 -3 1 0
-1 -2 -2 -0 -3 -9 -12 -7 -7 -4 -4 -7 5 5 6 1 -6 1 2 2 -4 -4 -5 -6 -5 -3 -3 -0 1 0 -1 -3 -3 -4 -5 -5 -0 -2 -3 -3 -5 -5 -4 -2 0 -1 1
1 -1 -2 -3 -2 -8 -9 -6 -6 -3 -4 -2 7 8 7 6 -10 -2 -2 -4 -5 -6 -3 -3 -4 -4 -4 -4 1 0 -1 -3 -3 -3 -3 -5 0 -3 -5 -2 -2 -2 -2 -4 -1 -1 -1
3 -1 -2 -4 -3 -8 -7 -6 -5 -2 -3 3 7 6 7 7 4 -3 -2 -7 -9 -7 -3 -4 -3 -3 -4 -4 -3 -1 -1 -1 -2 -2 -0 -1 2 -1 -1 1 -0 -1 -2 -3 -2 0 -0
3 1 -2 -3 -9 -9 -5 -5 -5 -1 -2 4 7 5 4 5 4 3 3 0 -5 -5 -3 -4 -3 -3 -4 -3 -2 0 -0 -1 -1 -1 -1 1 3 2 1 -1 -2 -2 -1 -1 -1 -1 -1
2 1 -1 -3 -5 -9 -5 -3 -4 1 -1 4 6 7 3 -1 -2 2 1 2 2 -2 -3 -3 -2 1 -1 1 -1 1 1 0 -0 -2 -1 0 0 0 0 -1 -2 -0 -1 -1 -0 -0 1
1 2 -1 -3 -6 -9 -4 -3 -0 2 1 3 5 7 6 1 -2 1 1 2 1 -1 -3 -3 -3 2 2 1 -1 -2 -1 -1 -2 -2 -0 0 1 1 0 2 -1 1 0 -1 -0 0 0
1 2 -1 -3 -7 -7 -3 -2 3 4 1 4 7 6 6 4 -3 -1 1 2 -1 -2 -1 2 -2 1 0 -0 -1 -2 -2 -1 -3 -3 -2 0 1 2 1 -1 1 -0 -1 -0 1 1 0
1 2 -0 -2 -7 -4 -3 -1 3 4 1 6 7 7 8 5 3 -2 -1 -0 1 2 3 2 2 1 -0 -2 0 0 1 -1 -0 -0 -2 -1 2 4 3 2 1 3 2 1 -0 2 1
1 2 -1 -3 -6 -5 -3 -1 3 4 0 6 6 7 8 4 5 6 4 -0 2 2 2 1 0 -0 -1 1 0 2 2 2 -0 0 -1 2 2 2 2 3 4 2 3 1 -1 3 1
-0 2 -0 -3 -6 -7 -3 -1 3 4 -0 5 6 6 7 5 5 5 3 2 0 1 3 2 -0 -1 -1 1 3 2 2 0 0 1 1 3 3 3 3 3 4 3 3 -1 -3 -2 0
0 2 0 -2 -6 -8 -3 1 3 4 -0 5 6 7 7 5 4 5 5 5 3 1 2 2 1 1 1 0 1 2 2 1 0 -1 0 2 3 4 4 4 4 3 2 1 1 1 0
0 1 -2 -3 -6 -8 -3 1 3 3 0 4 5 6 6 5 4 4 4 4 5 3 2 2 1 5 3 3 3 2 2 4 2 3 4 5 2 5 2 3 4 3 2 2 1 1 1

GFSGBSN_850_dewp_345.txt.gz
Dewpoint
-7 -11 -14 -16 -17 -18 -18 -17 -17 -19 -20 -22 -22 -23 -23 -24 -26 -27 -27 -27 -27 -27 -25 -22 -18 -17 -13 -8 -9 -12 -10 -10 -11 -6 -8 -11 -10 -9 -6 -6 -6 -5 -6 -2 1 2 5
-4 -6 -11 -14 -16 -17 -19 -19 -18 -18 -20 -21 -22 -23 -24 -24 -25 -27 -27 -28 -28 -28 -28 -26 -23 -18 -15 -8 -10 -12 -12 -9 -9 -8 -7 -6 -9 -9 -6 -6 -6 -5 -1 2 4 4 4
-0 -2 -8 -12 -15 -15 -17 -19 -19 -19 -20 -21 -22 -22 -23 -24 -25 -26 -28 -28 -28 -28 -28 -28 -26 -19 -17 -15 -10 -10 -10 -8 -9 -10 -6 -6 -6 -8 -5 -3 -4 1 2 2 3 3 3
3 1 -2 -11 -12 -15 -17 -18 -19 -19 -19 -20 -21 -22 -23 -24 -25 -26 -27 -28 -25 -21 -25 -28 -27 -19 -18 -16 -10 -9 -11 -10 -9 -9 -8 -8 -7 -5 -2 -2 -2 1 1 3 1 3 2
4 2 0 -7 -12 -14 -16 -18 -18 -19 -18 -19 -20 -21 -22 -23 -25 -26 -27 -26 -12 -7 -20 -26 -25 -17 -18 -12 -7 -5 -10 -11 -11 -10 -10 -8 -4 -2 -1 0 1 0 -0 2 -0 2 2
4 3 1 -4 -10 -12 -14 -16 -17 -19 -18 -18 -19 -21 -22 -23 -24 -26 -22 -14 -1 -2 -12 -17 -14 -13 -19 -10 -7 -7 -7 -11 -10 -10 -5 -4 -4 -2 -1 0 1 2 1 0 0 -1 2
5 3 2 -0 -5 -9 -13 -11 -14 -18 -18 -18 -18 -20 -21 -22 -23 -19 -14 -2 -3 0 0 -12 -11 -11 -8 -7 -8 -6 -7 -8 -9 -11 -5 -4 -4 -4 -4 -1 -1 -1 -0 -0 -1 -3 1
4 4 2 1 -2 -5 -11 -9 -10 -16 -18 -17 -17 -19 -21 -22 -22 -6 -3 1 4 4 5 -6 -5 -7 -11 -10 -9 -7 -7 -9 -10 -8 -6 -5 -3 -4 -4 -2 -1 -1 -1 -2 -2 -2 0
4 4 4 3 -0 -4 -7 -9 -10 -14 -17 -17 -17 -17 -20 -21 -17 -3 -1 3 4 4 6 -3 -5 -6 -12 -15 -8 -8 -7 -8 -7 -6 -6 -4 -6 -4 -5 -5 -4 -3 -2 -2 -3 -1 1
2 3 3 3 2 -3 -5 -9 -8 -13 -15 -17 -17 -17 -20 -21 -13 -1 1 3 2 3 3 -2 -3 -5 -7 -6 -2 -5 -5 -7 -8 -5 -5 -5 -6 -6 -5 -5 -5 -3 -5 -4 -3 -0 0
2 3 3 3 2 -0 -4 -6 -8 -12 -14 -15 -16 -18 -19 -21 -5 -1 3 -3 0 7 -0 -3 -2 -7 -4 -3 -6 -8 -5 -7 -7 -6 -6 -6 -5 -6 -6 -7 -5 -4 -2 -2 1 2 1
1 2 3 3 3 1 -3 -5 -8 -12 -13 -14 -15 -17 -18 -20 -10 0 1 -4 6 -1 -0 -1 -4 -5 -1 -4 -5 -8 -9 -9 -9 -8 -8 -7 -9 -8 -8 -8 -5 -3 -2 -3 -2 -0 1
0 1 2 3 3 1 -1 -6 -7 -12 -13 -14 -13 -16 -17 -19 -16 -2 -3 2 -2 1 -4 -3 -4 -4 -4 -4 -4 -5 -6 -5 -7 -5 -5 -7 -8 -9 -8 -6 -4 -3 -1 0 -1 -1 -2
1 1 2 2 2 1 -1 -6 -8 -11 -12 -13 -13 -15 -17 -19 -13 -6 -6 3 -9 -6 -0 -4 -4 -5 -3 -5 -4 -3 -4 -4 -4 -7 -6 -6 -4 -7 -7 -5 -6 -3 -1 1 -0 -0 -1
1 0 0 1 0 1 -2 -4 -7 -10 -11 -10 -12 -13 -16 -18 -12 -8 3 -3 -3 2 -0 -3 -3 -5 -2 -3 -4 -2 -1 -2 -2 -3 -4 -4 -4 -6 -7 -7 -6 -2 -2 -3 2 1 1
2 0 -0 -1 -1 -3 -2 -4 -7 -9 -9 -6 -10 -10 -14 -17 -12 -6 -2 -6 -1 2 -2 -4 -1 -1 -0 -0 -2 -1 -3 -3 -3 -3 -2 -2 -2 -5 -5 -6 -5 -4 -4 -1 -1 -0 -0
3 0 -0 -1 -2 0 -2 -5 -8 -7 -6 -7 -6 -4 -4 -12 -8 -4 -8 -4 0 -1 -3 -4 -3 -1 -1 0 -0 0 -1 -3 -2 -3 -5 -3 -4 -4 -3 -2 -2 -3 -2 -1 -1 0 1
3 1 -0 -1 -2 -3 -7 -7 -8 -7 -3 -7 -0 3 3 -7 -9 -1 -4 -1 -2 -5 -4 -4 -3 -3 -1 0 1 -1 -1 -1 -2 -3 -5 -3 -0 0 -2 -3 -4 -3 -2 -1 0 1 2
2 2 -1 -1 -1 -4 -8 -9 -8 -7 -3 -1 6 7 6 -0 -9 -4 -4 -4 -5 -8 -3 -3 -2 -3 -3 0 2 0 -1 -2 -1 -1 -2 -3 1 -2 -1 -2 -2 -2 -2 -2 -0 -0 1
1 3 0 -1 -1 -4 -5 -8 -7 -6 -3 3 6 6 7 4 -5 -6 -6 -9 -13 -11 -5 -3 -3 -4 -2 -0 1 1 -0 -0 -1 -0 -1 1 3 -2 -2 1 -0 -0 -1 -2 -1 1 1
1 2 1 -1 -1 -3 -6 -6 -8 -5 -3 6 6 5 5 6 5 3 -4 -6 -10 -8 -3 -4 -3 -3 -4 -1 1 1 -0 -0 -2 -2 -0 2 3 1 -1 -2 -1 -1 -0 -1 1 0 1
0 1 2 0 -1 -2 -5 -7 -6 -4 -1 6 6 6 3 3 4 3 1 2 -5 -11 -3 -3 -1 -1 -2 -0 -1 2 1 0 -1 -1 0 -0 2 0 1 -2 -2 -0 -1 -1 -0 0 0
-3 1 2 1 -1 -2 -4 -9 -5 -4 1 5 6 6 3 -0 3 1 1 1 2 -1 -1 -2 -1 1 2 0 -1 -1 -1 -2 -1 -0 1 1 2 1 2 -0 -1 1 0 -0 0 1 0
-3 -2 1 2 -0 -1 -2 -7 -5 -3 1 4 6 7 5 3 0 2 1 -0 1 -0 -0 0 -1 -0 -0 -2 -2 -3 -3 -1 -2 -0 -1 1 2 1 1 -1 3 -1 -1 -1 0 0 0
-6 -2 -1 2 1 -1 -2 -5 -7 -2 2 5 6 6 6 4 0 -1 0 0 2 2 2 1 1 1 -0 -3 0 -1 1 -2 1 1 0 0 2 4 5 3 0 1 -0 2 0 1 1
-7 -3 -1 0 2 -0 -2 -4 -7 -2 2 4 5 6 6 4 4 4 -1 1 3 3 2 1 2 0 -2 -0 -0 2 1 -2 0 1 0 1 2 4 4 6 4 2 2 2 -1 2 0
-6 -4 -2 -0 1 1 -1 -4 -5 0 3 3 4 6 6 5 5 5 2 2 1 2 3 1 -0 -1 -2 1 2 3 2 0 2 1 2 3 3 4 3 5 3 1 3 -2 -3 0 1
-8 -4 -4 -0 0 2 -1 -4 -4 1 3 3 4 6 6 5 5 5 5 4 1 1 4 1 2 -0 1 2 2 3 2 2 1 0 1 2 4 4 4 5 6 3 1 1 1 1 1
-7 -5 -4 0 1 1 -2 -7 -3 1 3 3 4 6 6 5 5 4 4 4 3 1 1 1 -0 -1 -1 3 2 2 3 3 2 5 3 3 2 4 3 3 4 3 2 1 2 2 2

GFSGBSN_850_dewp_348.txt.gz
Dewpoint
-2 -7 -14 -14 -16 -16 -17 -17 -17 -18 -19 -21 -21 -22 -24 -24 -25 -26 -27 -28 -28 -28 -28 -26 -22 -19 -18 -6 -8 -11 -9 -11 -9 -5 -6 -6 -8 -9 -9 -8 -6 -4 -5 -5 -4 0 2
1 -2 -10 -9 -13 -16 -18 -18 -19 -19 -18 -20 -21 -22 -24 -24 -24 -26 -26 -27 -27 -28 -28 -29 -27 -23 -18 -10 -10 -11 -11 -9 -8 -6 -7 -8 -11 -11 -10 -8 -7 -5 -6 -5 2 4 5
4 1 -2 -6 -10 -14 -16 -18 -19 -19 -19 -20 -21 -22 -22 -24 -24 -26 -26 -27 -28 -28 -28 -28 -28 -25 -16 -14 -12 -10 -10 -9 -10 -9 -7 -6 -6 -7 -5 -6 -5 -4 -2 -1 2 3 4
4 4 2 -1 -5 -12 -15 -18 -18 -19 -19 -20 -21 -21 -21 -22 -24 -25 -26 -27 -27 -23 -15 -22 -27 -26 -12 -18 -13 -9 -10 -8 -9 -9 -9 -7 -6 -6 -4 -2 -2 -1 -0 -0 1 3 3
4 4 4 1 -2 -10 -13 -17 -18 -19 -19 -19 -20 -21 -21 -22 -24 -26 -26 -25 -21 -5 -15 -21 -24 -22 -14 -16 -7 -5 -9 -7 -10 -10 -8 -8 -5 -3 -2 -3 -3 -1 -2 -1 0 1 1
5 4 4 2 -0 -9 -12 -14 -17 -18 -19 -18 -19 -20 -21 -22 -24 -26 -24 -17 -5 -1 -9 -18 -15 -8 -17 -8 -6 -7 -7 -10 -9 -7 -5 -4 -4 -5 -6 -5 -3 -2 -1 -2 -2 -2 -1
4 5 4 3 1 -4 -9 -12 -15 -17 -18 -19 -19 -18 -20 -22 -24 -23 -16 -4 1 2 4 -9 -11 -11 -8 -5 -8 -5 -6 -7 -8 -7 -6 -5 -5 -5 -7 -6 -6 -4 -3 -3 -4 -5 -2
3 5 4 4 2 -1 -6 -11 -13 -15 -17 -18 -18 -17 -19 -22 -22 -11 -8 5 2 2 2 -0 -4 -3 -9 -12 -6 -7 -7 -9 -8 -6 -6 -5 -6 -7 -6 -4 -4 -4 -6 -7 -8 -4 -2
2 3 4 4 3 1 -5 -7 -13 -14 -15 -17 -18 -17 -19 -22 -19 -5 1 1 1 2 4 -1 -1 -3 -7 -10 -11 -7 -6 -9 -10 -8 -7 -6 -7 -6 -7 -7 -6 -7 -5 -7 -6 -4 -2
-1 2 3 4 3 2 -3 -5 -12 -13 -14 -16 -17 -17 -19 -21 -15 -5 5 1 -0 3 1 -5 -5 -4 -5 -4 -4 -4 -4 -9 -9 -9 -9 -9 -8 -7 -8 -8 -8 -7 -6 -4 -4 -2 -4
1 -0 2 3 3 2 0 -5 -9 -13 -13 -15 -15 -17 -19 -20 -6 2 1 -3 -0 7 -4 -4 -3 -7 -4 -3 -6 -7 -4 -6 -8 -7 -6 -8 -6 -6 -7 -9 -8 -8 -3 -2 -1 -2 -2
2 -0 1 3 3 3 1 -4 -8 -11 -12 -13 -14 -16 -18 -20 -6 -3 0 -4 5 2 1 -1 -5 -4 -6 -4 -6 -7 -7 -7 -8 -8 -8 -9 -9 -9 -10 -9 -8 -6 -3 -2 -1 -3 -2
2 0 2 2 3 3 2 -3 -8 -10 -11 -12 -14 -16 -17 -19 -6 -2 -2 3 0 -1 -3 -4 -4 -4 -7 -6 -5 -6 -7 -6 -7 -6 -6 -8 -9 -10 -9 -8 -5 -4 -4 -3 -3 -3 -3
3 0 1 2 2 2 2 -3 -11 -10 -11 -12 -14 -15 -17 -18 -14 -4 -7 4 -5 -2 -2 -5 -4 -4 -5 -5 -4 -5 -5 -6 -6 -8 -8 -8 -5 -8 -7 -6 -7 -6 -4 -3 -1 -3 -3
3 1 0 1 2 1 1 -2 -13 -11 -10 -12 -13 -13 -16 -19 -12 -9 3 -6 -2 -1 -3 -3 -4 -3 -3 -4 -4 -4 -3 -5 -4 -4 -5 -6 -5 -7 -7 -7 -6 -2 -3 -2 1 2 -0
3 1 1 0 1 1 -0 -2 -10 -12 -10 -9 -10 -12 -12 -18 -9 -6 -2 -8 1 -0 -3 -4 -3 -3 -3 -4 -4 -3 -4 -4 -4 -4 -3 -3 -4 -5 -5 -6 -5 -3 -4 -1 -2 1 0
2 2 1 -0 -1 -1 -2 -4 -8 -9 -9 -7 -8 1 -7 -16 -6 -2 -13 -7 -1 -2 -3 -4 -2 -1 -1 -2 -3 -2 -3 -4 -4 -4 -4 -3 -3 -3 -4 -2 -2 -4 -3 -2 -2 -0 -1
3 3 1 -0 -0 -2 -4 -8 -8 -6 -6 -7 -2 1 -3 -6 -7 -5 -10 -6 -2 -5 -3 -5 -3 -2 -0 -1 -1 -1 -2 -2 -2 -3 -5 -1 -1 -2 -2 -3 -5 -3 -2 -2 -1 1 1
2 3 2 -0 -0 -2 -4 -8 -9 -7 -4 0 4 6 1 -4 -10 -8 -6 -7 -4 -7 -3 -4 -3 -2 -1 0 1 -1 -1 -1 -1 -2 -3 -3 -1 -1 -0 -1 -3 -2 -2 -2 -1 -1 1
1 2 2 -0 -0 -1 -4 -6 -10 -7 -4 3 6 5 4 1 -5 -8 -8 -12 -9 -11 -4 -3 -3 -3 -0 1 -0 1 -1 -1 -0 0 -0 1 1 1 -0 1 -2 -1 -3 -4 -5 -3 -1
-0 2 2 0 -1 -1 -4 -4 -8 -7 -3 4 6 4 5 -1 -2 -5 -7 -11 -11 -3 -2 -3 -3 -4 -2 1 1 1 -1 -2 -2 -1 0 1 2 -0 -2 -2 -2 -2 -3 -5 -3 -2 -1
-1 2 2 0 -1 -1 -3 -4 -4 -6 -2 5 6 5 3 4 2 -3 -2 -6 -14 -7 -2 -3 -3 -3 -3 -1 -2 1 -1 -1 -2 -2 -1 -0 2 -0 -0 -3 -3 -2 -2 -2 -1 -1 -1
-1 0 2 1 -1 -1 -2 -5 -6 -6 -1 5 6 3 3 1 2 -3 -3 -5 -6 -5 -0 -1 -3 -2 -1 0 1 1 1 1 0 -1 1 -0 1 0 0 -1 -2 0 0 -0 -0 -1 -2
-1 0 1 1 -1 -1 -2 -6 -5 -5 -0 5 6 6 4 2 1 -3 -3 -2 -3 -4 -1 0 -0 -2 1 -0 -0 -1 -0 -1 -0 0 0 0 -0 -1 2 -0 8 1 -1 -2 -0 -1 -2
-1 -1 1 2 -1 -1 -2 -5 -5 -4 1 5 6 6 6 3 -1 -1 -1 0 2 1 2 1 3 3 1 -0 -1 -1 -1 -2 0 0 -0 -1 -0 3 4 0 0 0 0 1 1 0 -2
-2 -2 -0 1 1 -1 -1 -4 -6 -3 2 5 6 6 6 4 3 3 0 -1 2 1 2 3 3 0 0 -2 -3 2 1 -3 -0 -0 -1 0 -0 -1 6 5 1 2 2 1 -0 2 -1
-3 -2 -1 0 2 -0 -1 -2 -7 -3 2 4 5 6 6 6 6 6 1 -0 2 2 1 2 2 1 2 -2 -2 0 -1 -2 1 -0 0 1 -0 2 2 4 3 2 -0 -1 0 2 1
-5 -4 -1 -0 1 1 -1 -2 -7 -2 2 4 4 6 5 6 6 5 5 4 3 3 1 3 2 1 0 -1 -1 2 -0 0 0 -1 -1 -0 3 3 3 4 9 2 -0 1 2 3 2
-8 -4 -2 -1 0 2 0 -2 -7 -1 2 3 5 6 5 6 6 4 4 4 2 2 4 4 3 2 1 1 2 2 3 3 1 3 2 1 2 2 3 4 5 3 2 3 3 2 3